K7JGC-9 Weather Reports


time (UTC)temp
C
wind
direction
speed
KPH
gust
KPH
rain 1hr
cm
rain 24hr
cm
rain mn
cm
humidity
%
barometer
mb
20260503214740 32 342 0.0 0.0 0.00 0.00 0.00 42 1009.0
20260503211735 31 340 0.0 0.0 0.00 0.00 0.00 47 1009.4
20260503204735 31 335 0.0 0.0 0.00 0.00 0.00 47 1009.9
20260503201732 30 326 0.0 0.0 0.00 0.00 0.00 40 1010.3
20260503194731 27 334 0.0 0.0 0.00 0.00 0.00 50 1010.8
20260503191731 25 333 0.0 0.0 0.00 0.00 0.00 57 1011.0
20260503184727 23 333 0.0 0.0 0.00 0.00 0.00 59 1011.6
20260503181721 25 330 0.0 0.0 0.00 0.00 0.00 55 1012.0
20260503174720 23 337 0.0 0.0 0.00 0.00 0.00 60 1012.3
20260503171717 18 327 0.0 0.0 0.00 0.00 0.00 74 1012.4
20260503081629 13 341 0.0 0.0 0.00 0.00 0.00 92 1013.2
20260503071625 13 342 0.0 0.0 0.00 0.00 0.00 89 1013.1
20260503054614 15 342 0.0 0.0 0.00 0.00 0.00 85 1012.8
20260503051613 15 343 0.0 0.0 0.00 0.00 0.00 82 1013.1
20260503044613 16 343 0.0 0.0 0.00 0.00 0.00 80 1013.2
20260503041611 17 343 0.0 0.0 0.00 0.00 0.00 78 1013.2
20260503034606 17 343 0.0 0.0 0.00 0.00 0.00 75 1013.2
20260503031604 18 330 0.0 0.0 0.00 0.00 0.00 72 1012.8
20260503024602 18 325 0.0 0.0 0.00 0.00 0.00 70 1012.7
20260503021600 21 321 0.0 0.0 0.00 0.00 0.00 64 1012.4
20260503014557 21 339 0.0 0.0 0.00 0.00 0.00 67 1011.6
20260503011558 22 340 0.0 0.0 0.00 0.00 0.00 68 1011.6
20260503004556 22 339 0.0 0.0 0.00 0.00 0.00 61 1011.7
20260503001555 22 347 0.0 0.0 0.00 0.00 0.00 60 1011.8
20260502234553 21 332 0.0 0.0 0.00 0.00 0.00 62 1012.1
20260502231550 21 339 0.0 0.0 0.00 0.00 0.00 59 1012.2
20260502224545 20 343 0.0 0.0 0.00 0.00 0.00 62 1012.9
20260502221544 21 325 0.0 0.0 0.00 0.00 0.00 62 1013.5